User: anonymous   Login
Location: Kaarina
(60.4167°N, 22.4167°E)
Time: 04:24:29
(UTC+03:00)
Language:

Meteor 1-21 - Orbit

View from above orbital plane
View from above orbital plane
View from above satellite
View from above satellite

Ground track
Ground track

The orbit data is extracted from the following two-line orbital elements,

1  7714U 75023A   19286.00458359 -.00000052  00000-0 -37666-4 0  9997
2  7714  81.2105  86.1120 0032277  27.5970 332.6904 14.08017890604495
Epoch (UTC): 13 October 2019 00:06:36
Eccentricity: 0.0032277
inclination: 81.2105°
perigee height: 843 km
apogee height: 889 km
right ascension of ascending node: 86.1120°
argument of perigee: 27.5970°
revolutions per day: 14.08017890
mean anomaly at epoch: 332.6904°
orbit number at epoch: 60449

The dashed part of the orbit path shows where the satellite is in the earth's shadow,  

DLR